Location: Cahas Mountain Overlook
(37.0833°N, 80.1000°W)
Time: 12:00:10
(UTC-05:00)

SR - Pass Details

Date: 13 December 2023
Orbit: 574 x 867 km, 66.7° (Epoch: 29 February)

Event Time Altitude Azimuth Distance (km) Brightness Sun altitude
Rises 08:11:53 0° 167° (SSE) 3,214 ? 7.0°
Reaches altitude 10° 08:14:46 10° 151° (SSE) 2,344 ? 7.5°
Maximum altitude 08:18:42 21° 105° (ESE) 1,779 ? 8.1°
Drops below altitude 10° 08:22:47 10° 58° (ENE) 2,465 ? 8.8°
Sets 08:25:53 0° 43° (NE) 3,432 ? 9.3°
